Parkersburg, WV

7:19 AM EST on December 11, 2017 (GMT -0500)
Wood County Wilson

Weather History for KPKB - February, 2014

Change the Weather History Date:

Tuesday, February 18, 2014

  Actual Average Record
Temperature  
Mean Temperature 41 °F 35 °F  
Max Temperature 50 °F 45 °F 70 °F (1981)
Min Temperature 32 °F 26 °F -2 °F (1936)
Degree Days  
Heating Degree Days 24 30  
Month to date heating degree days 364 564  
Since 1 July heating degree days 3459 3509  
Cooling Degree Days 0 0  
Month to date cooling degree days 0 0  
Year to date cooling degree days 0 0  
Moisture  
Dew Point 26 °F    
Average Humidity 51    
Maximum Humidity 70    
Minimum Humidity 31    
Precipitation  
Precipitation 0.00 in 0.10 in 0.22 in (2000)
Month to date precipitation 0.38 1.71  
Year to date precipitation 2.64 4.66  
Sea Level Pressure  
Sea Level Pressure 30.03 in    
Wind  
Wind Speed 9 mph (SW)    
Max Wind Speed 25 mph    
Max Gust Speed 38 mph    
Visibility 10 miles    
Events      
T = Trace of Precipitation, MM = Missing Value Source: NWS Daily Summary

Daily Weather History Graph

Daily Weather History Graph

Search for Another Location

Airport or City:

Trip Planner

Search our weather history database for the weather conditions in past years. The results will help you decide how hot, cold, wet, or windy it might be!

Date:

Astronomy

Feb. 18, 2014 Rise Set
Actual Time 7:13 AM EST 6:06 PM EST
Civil Twilight 6:46 AM EST 6:33 PM EST
Nautical Twilight 6:15 AM EST 7:04 PM EST
Astronomical Twilight 5:44 AM EST 7:35 PM EST
Moon 9:56 PM EST (2/18) 8:46 AM EST (2/18)
Length of Visible Light 11h 46m
Length of Day
10h 52m
Waning Gibbous, 87% of the Moon is Illuminated
Feb 18
Waning Gibbous
Feb 22
Last Quarter
Mar 1
New
Mar 8
First Quarter
Mar 16
Full

Hourly Weather History & Observations

Time (EST) Temp. Windchill Dew Point Humidity Pressure Visibility Wind Dir Wind Speed Gust Speed Precip Events Conditions
12:00 AM 39.0 °F 32.3 °F 35.1 °F 86% 29.90 in 10.0 mi SW 10.4 mph - N/A   Scattered Clouds
12:53 AM 39.9 °F 31.4 °F 30.9 °F 70% 29.95 in 10.0 mi WSW 16.1 mph 29.9 mph N/A   Overcast
1:43 AM 39.0 °F 31.8 °F 28.9 °F 67% 29.96 in 10.0 mi WSW 11.5 mph 26.5 mph N/A   Overcast
1:53 AM 39.0 °F 29.9 °F 28.9 °F 67% 29.98 in 10.0 mi WSW 17.3 mph 23.0 mph N/A   Overcast
2:12 AM 39.0 °F 31.8 °F 28.9 °F 67% 29.95 in 10.0 mi WSW 11.5 mph 28.8 mph N/A   Overcast
2:38 AM 37.9 °F 29.6 °F 28.9 °F 70% 29.95 in 10.0 mi WSW 13.8 mph 21.9 mph N/A   Overcast
2:53 AM 37.9 °F 30.0 °F 28.9 °F 70% 29.97 in 10.0 mi WSW 12.7 mph 24.2 mph N/A   Overcast
3:22 AM 37.9 °F 30.9 °F 28.9 °F 70% 29.94 in 10.0 mi SW 10.4 mph 23.0 mph N/A   Overcast
3:53 AM 37.9 °F 28.5 °F 28.9 °F 70% 29.96 in 10.0 mi SW 17.3 mph 27.6 mph N/A   Mostly Cloudy
4:53 AM 37.9 °F 30.0 °F 28.9 °F 70% 29.98 in 10.0 mi SW 12.7 mph 24.2 mph N/A   Clear
5:53 AM 37.9 °F 29.6 °F 28.0 °F 68% 30.00 in 10.0 mi WSW 13.8 mph 20.7 mph N/A   Partly Cloudy
6:53 AM 37.9 °F 30.5 °F 28.0 °F 68% 30.04 in 10.0 mi WSW 11.5 mph 19.6 mph N/A   Overcast
7:53 AM 37.9 °F 30.9 °F 28.0 °F 68% 30.09 in 10.0 mi WSW 10.4 mph 20.7 mph N/A   Overcast
8:53 AM 37.9 °F 30.9 °F 28.0 °F 68% 30.12 in 10.0 mi WSW 10.4 mph 16.1 mph N/A   Overcast
9:53 AM 39.9 °F 33.4 °F 27.0 °F 60% 30.14 in 10.0 mi WSW 10.4 mph 21.9 mph N/A   Mostly Cloudy
10:53 AM 42.1 °F 36.6 °F 27.0 °F 55% 30.16 in 10.0 mi WSW 9.2 mph 24.2 mph N/A   Scattered Clouds
11:53 AM 44.1 °F 37.4 °F 26.1 °F 49% 30.16 in 10.0 mi West 13.8 mph 20.7 mph N/A   Clear
12:53 PM 46.0 °F 41.4 °F 25.0 °F 44% 30.14 in 10.0 mi WSW 9.2 mph 23.0 mph N/A   Clear
1:53 PM 48.0 °F - 24.1 °F 39% 30.13 in 10.0 mi West 6.9 mph 17.3 mph N/A   Clear
2:53 PM 48.0 °F - 23.0 °F 37% 30.11 in 10.0 mi SW 9.2 mph - N/A   Clear
3:53 PM 48.9 °F - 21.9 °F 35% 30.10 in 10.0 mi SSW 9.2 mph - N/A   Clear
4:53 PM 48.9 °F - 21.0 °F 33% 30.07 in 10.0 mi South 5.8 mph - N/A   Clear
5:53 PM 48.9 °F - 19.9 °F 32% 30.05 in 10.0 mi SE 3.5 mph - N/A   Clear
6:53 PM 46.9 °F - 19.9 °F 34% 30.03 in 10.0 mi ESE 3.5 mph - N/A   Clear
7:53 PM 41.0 °F 39.0 °F 23.0 °F 49% 30.01 in 10.0 mi SE 3.5 mph - N/A   Clear
8:53 PM 41.0 °F 39.0 °F 21.0 °F 45% 29.99 in 10.0 mi East 3.5 mph - N/A   Clear
9:53 PM 36.0 °F 33.3 °F 24.1 °F 62% 29.98 in 10.0 mi ESE 3.5 mph - N/A   Clear
10:53 PM 34.0 °F - 24.1 °F 67% 29.95 in 10.0 mi Calm Calm - N/A   Clear
11:53 PM 43.0 °F 38.2 °F 21.9 °F 43% 29.92 in 10.0 mi South 8.1 mph - N/A   Clear